DW1449 Weather Reports


Display with metric or nautical units.
time (UTC)temp
F
wind
direction
speed
MPH
gust
MPH
rain 1hr
in
rain 24hr
in
rain mn
in
humidity
%
barometer
mb
20260505213052 41 0.0 0.0 0.00 0.00 0.00 67 1012.3
20260505212533 41 0.0 0.0 0.00 0.00 0.00 68 1012.3
20260505212036 41 0.0 0.0 0.00 0.00 0.00 68 1012.2
20260505211548 41 0.0 0.0 0.00 0.00 0.00 68 1012.3
20260505211039 41 0.0 0.0 0.00 0.00 0.00 68 1012.2
20260505210535 41 0.0 0.0 0.00 0.00 0.00 67 1012.2
20260505210039 41 0.0 0.0 0.00 0.00 0.00 67 1012.2
20260505205538 41 0.0 0.0 0.00 0.00 0.00 68 1012.1
20260505205035 42 0.0 0.0 0.00 0.00 0.00 68 1012.1
20260505204539 42 0.0 0.0 0.00 0.00 0.00 67 1012.1
20260505204034 42 0.0 0.0 0.00 0.00 0.00 67 1012.1
20260505203536 42 0.0 0.0 0.00 0.00 0.00 67 1012.2
20260505203042 43 0.0 0.0 0.00 0.00 0.00 65 1012.3
20260505202535 43 0.0 0.0 0.00 0.00 0.00 66 1012.3
20260505202034 43 0.0 0.0 0.00 0.00 0.00 66 1012.2
20260505201547 43 0.0 0.0 0.00 0.00 0.00 66 1012.3
20260505201034 43 0.0 0.0 0.00 0.00 0.00 66 1012.1
20260505200535 43 0.0 0.0 0.00 0.00 0.00 66 1012.2
20260505200040 44 0.0 0.0 0.00 0.00 0.00 66 1012.3
20260505195535 44 0.0 0.0 0.00 0.00 0.00 65 1012.2
20260505195034 44 0.0 0.0 0.00 0.00 0.00 65 1012.1
20260505194539 44 0.0 0.0 0.00 0.00 0.00 65 1012.1
20260505194034 44 0.0 0.0 0.00 0.00 0.00 65 1012.1
20260505193534 45 0.0 0.0 0.00 0.00 0.00 64 1012.1
20260505193040 45 0.0 0.0 0.00 0.00 0.00 65 1012.1
20260505192535 45 0.0 0.0 0.00 0.00 0.00 65 1012.1
20260505192035 45 0.0 0.0 0.00 0.00 0.00 65 1012.0
20260505191559 46 0.0 0.0 0.00 0.00 0.00 63 1012.2
20260505191034 46 0.0 0.0 0.00 0.00 0.00 62 1012.0
20260505190534 47 0.0 0.0 0.00 0.00 0.00 61 1012.0
20260505190042 47 0.0 0.0 0.00 0.00 0.00 61 1012.0
20260505185534 47 0.0 0.0 0.00 0.00 0.00 60 1011.9
20260505185035 47 0.0 0.0 0.00 0.00 0.00 59 1012.0
20260505184549 48 0.0 0.0 0.00 0.00 0.00 58 1011.9
20260505184036 48 0.0 0.0 0.00 0.00 0.00 58 1011.9
20260505183535 48 0.0 0.0 0.00 0.00 0.00 57 1011.8
20260505183045 49 0.0 0.0 0.00 0.00 0.00 56 1012.0
20260505182535 49 0.0 0.0 0.00 0.00 0.00 56 1012.0
20260505182038 49 0.0 0.0 0.00 0.00 0.00 55 1011.9
20260505181544 49 0.0 0.0 0.00 0.00 0.00 54 1011.8
20260505181035 49 0.0 0.0 0.00 0.00 0.00 55 1011.9
20260505180533 50 0.0 0.0 0.00 0.00 0.00 54 1011.9
20260505180059 50 0.0 0.0 0.00 0.00 0.00 53 1011.9
20260505175536 50 0.0 0.0 0.00 0.00 0.00 52 1011.9
20260505175034 50 0.0 0.0 0.00 0.00 0.00 52 1011.9
20260505174552 50 0.0 0.0 0.00 0.00 0.00 53 1011.8
20260505174038 50 0.0 0.0 0.00 0.00 0.00 53 1011.8
20260505173536 50 0.0 0.0 0.00 0.00 0.00 52 1011.9
20260505173049 50 0.0 0.0 0.00 0.00 0.00 53 1011.7
20260505172537 50 0.0 0.0 0.00 0.00 0.00 53 1011.8
20260505172035 50 0.0 0.0 0.00 0.00 0.00 54 1012.0
20260505171549 50 0.0 0.0 0.00 0.00 0.00 53 1011.9
20260505171037 50 0.0 0.0 0.00 0.00 0.00 54 1011.8
20260505170540 50 0.0 0.0 0.00 0.00 0.00 55 1011.9
20260505170049 50 0.0 0.0 0.00 0.00 0.00 56 1011.7
20260505165536 50 0.0 0.0 0.00 0.00 0.00 55 1011.7
20260505165036 50 0.0 0.0 0.00 0.00 0.00 55 1011.9
20260505164549 50 0.0 0.0 0.00 0.00 0.00 55 1011.8
20260505164037 51 0.0 0.0 0.00 0.00 0.00 54 1011.8
20260505163536 51 0.0 0.0 0.00 0.00 0.00 52 1011.8
20260505163043 51 0.0 0.0 0.00 0.00 0.00 51 1011.9
20260505162535 51 0.0 0.0 0.00 0.00 0.00 48 1011.8
20260505162036 51 0.0 0.0 0.00 0.00 0.00 49 1011.9
20260505161550 51 0.0 0.0 0.00 0.00 0.00 47 1011.8
20260505161035 51 0.0 0.0 0.00 0.00 0.00 46 1011.9
20260505160537 51 0.0 0.0 0.00 0.00 0.00 49 1011.8
20260505153047 52 0.0 0.0 0.00 0.00 0.00 42 1011.8
20260505152537 53 0.0 0.0 0.00 0.00 0.00 42 1011.7
20260505152035 53 0.0 0.0 0.00 0.00 0.00 42 1011.8
20260505151546 53 0.0 0.0 0.00 0.00 0.00 42 1011.8
20260505151038 53 0.0 0.0 0.00 0.00 0.00 42 1011.6
20260505150536 53 0.0 0.0 0.00 0.00 0.00 41 1011.6
20260505140536 53 0.0 0.0 0.00 0.00 0.00 40 1011.8
20260505125035 53 0.0 0.0 0.00 0.00 0.00 47 1012.0
20260505124542 54 0.0 0.0 0.00 0.00 0.00 40 1012.0
20260505124035 54 0.0 0.0 0.00 0.00 0.00 43 1012.0
20260505123537 54 0.0 0.0 0.00 0.00 0.00 36 1011.9
20260505123047 54 0.0 0.0 0.00 0.00 0.00 38 1011.9
20260505122536 54 0.0 0.0 0.00 0.00 0.00 41 1012.1
20260505122036 53 0.0 0.0 0.00 0.00 0.00 42 1012.1
20260505121542 53 0.0 0.0 0.00 0.00 0.00 38 1012.0
20260505121035 54 0.0 0.0 0.00 0.00 0.00 41 1012.0
20260505120534 54 0.0 0.0 0.00 0.00 0.00 40 1012.0
20260505120042 54 0.0 0.0 0.00 0.00 0.00 49 1011.8
20260505115535 54 0.0 0.0 0.00 0.00 0.00 41 1011.9
20260505115035 54 0.0 0.0 0.00 0.00 0.00 44 1012.0
20260505114542 53 0.0 0.0 0.00 0.00 0.00 47 1011.8
20260505114034 53 0.0 0.0 0.00 0.00 0.00 50 1012.0
20260505113533 54 0.0 0.0 0.00 0.00 0.00 63 1011.9
20260505113051 53 0.0 0.0 0.00 0.00 0.00 60 1012.0
20260505112535 53 0.0 0.0 0.00 0.00 0.00 57 1012.1
20260505112034 53 0.0 0.0 0.00 0.00 0.00 61 1012.0
20260505111545 53 0.0 0.0 0.00 0.00 0.00 51 1012.1
20260505111036 53 0.0 0.0 0.00 0.00 0.00 64 1012.0
20260505110538 53 0.0 0.0 0.00 0.00 0.00 62 1011.9
20260505102035 51 0.0 0.0 0.00 0.00 0.00 64 1012.2
20260505101557 51 0.0 0.0 0.00 0.00 0.00 68 1012.2
20260505101035 52 0.0 0.0 0.00 0.00 0.00 68 1012.2
20260505100536 52 0.0 0.0 0.00 0.00 0.00 66 1012.2
20260505100057 52 0.0 0.0 0.00 0.00 0.00 68 1012.2
20260505095537 51 0.0 0.0 0.00 0.00 0.00 67 1012.2
20260505095035 52 0.0 0.0 0.00 0.00 0.00 70 1012.2
20260505094545 51 0.0 0.0 0.00 0.00 0.00 74 1012.2
20260505094034 51 0.0 0.0 0.00 0.00 0.00 74 1012.2
20260505093536 51 0.0 0.0 0.00 0.00 0.00 74 1012.1
20260505093044 51 0.0 0.0 0.00 0.00 0.00 76 1012.3
20260505092536 50 0.0 0.0 0.00 0.00 0.00 76 1012.2
20260505092037 51 0.0 0.0 0.00 0.00 0.00 77 1012.3
20260505091543 51 0.0 0.0 0.00 0.00 0.00 74 1012.3
20260505091034 51 0.0 0.0 0.00 0.00 0.00 73 1012.1
20260505090535 50 0.0 0.0 0.00 0.00 0.00 74 1012.3
20260505090041 50 0.0 0.0 0.00 0.00 0.00 78 1012.4
20260505085533 50 0.0 0.0 0.00 0.00 0.00 76 1012.5
20260505085039 51 0.0 0.0 0.00 0.00 0.00 73 1012.4
20260505084539 50 0.0 0.0 0.00 0.00 0.00 72 1012.4
20260505084035 50 0.0 0.0 0.00 0.00 0.00 75 1012.4
20260505083535 50 0.0 0.0 0.00 0.00 0.00 73 1012.4
20260505083042 50 0.0 0.0 0.00 0.00 0.00 74 1012.2
20260505082536 50 0.0 0.0 0.00 0.00 0.00 78 1012.3
20260505082034 49 0.0 0.0 0.00 0.00 0.00 80 1012.2
20260505081553 49 0.0 0.0 0.00 0.00 0.00 77 1012.4
20260505081036 49 0.0 0.0 0.00 0.00 0.00 80 1012.3
20260505080536 49 0.0 0.0 0.00 0.00 0.00 78 1012.2
20260505080053 49 0.0 0.0 0.00 0.00 0.00 78 1012.2
20260505075535 49 0.0 0.0 0.00 0.00 0.00 79 1012.1
20260505075034 49 0.0 0.0 0.00 0.00 0.00 81 1012.0
20260505074541 49 0.0 0.0 0.00 0.00 0.00 81 1012.1
20260505074035 49 0.0 0.0 0.00 0.00 0.00 82 1012.2
20260505073533 49 0.0 0.0 0.00 0.00 0.00 82 1012.3
20260505073048 48 0.0 0.0 0.00 0.00 0.00 82 1012.2
20260505072537 48 0.0 0.0 0.00 0.00 0.00 83 1012.3
20260505072035 48 0.0 0.0 0.00 0.00 0.00 83 1012.2
20260505071551 48 0.0 0.0 0.00 0.00 0.00 83 1012.1
20260505071036 48 0.0 0.0 0.00 0.00 0.00 82 1012.1
20260505070535 48 0.0 0.0 0.00 0.00 0.00 83 1012.1
20260505070042 48 0.0 0.0 0.00 0.00 0.00 83 1012.1
20260505065536 48 0.0 0.0 0.00 0.00 0.00 84 1012.0
20260505065035 48 0.0 0.0 0.00 0.00 0.00 85 1012.1
20260505064542 47 0.0 0.0 0.00 0.00 0.00 85 1012.1
20260505064036 47 0.0 0.0 0.00 0.00 0.00 85 1012.1
20260505063535 47 0.0 0.0 0.00 0.00 0.00 86 1012.0
20260505063048 47 0.0 0.0 0.00 0.00 0.00 86 1012.1
20260505062536 47 0.0 0.0 0.00 0.00 0.00 87 1012.1
20260505062036 47 0.0 0.0 0.00 0.00 0.00 88 1012.1
20260505061541 46 0.0 0.0 0.00 0.00 0.00 88 1011.9
20260505061035 47 0.0 0.0 0.00 0.00 0.00 89 1012.0
20260505060535 47 0.0 0.0 0.00 0.00 0.00 90 1011.9
20260505060049 47 0.0 0.0 0.00 0.00 0.00 92 1012.0
20260505055535 47 0.0 0.0 0.00 0.00 0.00 92 1012.0
20260505055034 46 0.0 0.0 0.00 0.00 0.00 94 1012.0
20260505054549 46 0.0 0.0 0.00 0.00 0.00 94 1012.0
20260505054036 46 0.0 0.0 0.00 0.00 0.00 95 1012.0
20260505053535 45 0.0 0.0 0.00 0.00 0.00 96 1011.9
20260505053046 45 0.0 0.0 0.00 0.00 0.00 96 1011.9
20260505052537 44 0.0 0.0 0.00 0.00 0.00 96 1012.2
20260505052034 44 0.0 0.0 0.00 0.00 0.00 96 1012.1
20260505051549 44 0.0 0.0 0.00 0.00 0.00 97 1012.0
20260505051036 43 0.0 0.0 0.00 0.00 0.00 97 1012.0
20260505050535 43 0.0 0.0 0.00 0.00 0.00 96 1012.2
20260505041543 40 0.0 0.0 0.00 0.00 0.00 96 1012.1
20260505041036 40 0.0 0.0 0.00 0.00 0.00 96 1012.0
20260505040533 40 0.0 0.0 0.00 0.00 0.00 95 1012.1
20260505040042 40 0.0 0.0 0.00 0.00 0.00 96 1012.1
20260505035535 40 0.0 0.0 0.00 0.00 0.00 96 1012.1
20260505035035 39 0.0 0.0 0.00 0.00 0.00 96 1012.0
20260505034545 39 0.0 0.0 0.00 0.00 0.00 96 1012.0
20260505034035 39 0.0 0.0 0.00 0.00 0.00 96 1012.0
20260505033535 39 0.0 0.0 0.00 0.00 0.00 95 1011.9
20260505033046 39 0.0 0.0 0.00 0.00 0.00 95 1011.9
20260505032535 40 0.0 0.0 0.00 0.00 0.00 95 1011.9
20260505032036 40 0.0 0.0 0.00 0.00 0.00 96 1011.7
20260505031549 40 0.0 0.0 0.00 0.00 0.00 96 1011.8
20260505031035 40 0.0 0.0 0.00 0.00 0.00 96 1011.6
20260505030535 40 0.0 0.0 0.00 0.00 0.00 96 1011.6
20260505030043 40 0.0 0.0 0.00 0.00 0.00 96 1011.7
20260505025535 39 0.0 0.0 0.00 0.00 0.00 95 1011.7
20260505025034 40 0.0 0.0 0.00 0.00 0.00 96 1011.5
20260505024552 39 0.0 0.0 0.00 0.00 0.00 96 1011.7
20260505024035 39 0.0 0.0 0.00 0.00 0.00 96 1011.8
20260505023535 38 0.0 0.0 0.00 0.00 0.00 95 1011.7
20260505023049 38 0.0 0.0 0.00 0.00 0.00 94 1011.6
20260505022537 38 0.0 0.0 0.00 0.00 0.00 93 1011.8
20260505022035 39 0.0 0.0 0.00 0.00 0.00 93 1011.9
20260505021538 40 0.0 0.0 0.00 0.00 0.00 95 1011.9
20260505021035 41 0.0 0.0 0.00 0.00 0.00 95 1012.2
20260505020535 41 0.0 0.0 0.00 0.00 0.00 95 1012.1
20260505020049 41 0.0 0.0 0.00 0.00 0.00 95 1012.0
20260505015535 41 0.0 0.0 0.00 0.00 0.00 95 1012.2
20260505015035 41 0.0 0.0 0.00 0.00 0.00 95 1012.2
20260505014551 41 0.0 0.0 0.00 0.00 0.00 95 1012.2
20260505014034 41 0.0 0.0 0.00 0.00 0.00 95 1012.1
20260505013533 41 0.0 0.0 0.00 0.00 0.00 95 1012.1
20260505013043 41 0.0 0.0 0.00 0.00 0.00 95 1012.2
20260505012535 41 0.0 0.0 0.00 0.00 0.00 95 1012.2
20260505012034 41 0.0 0.0 0.00 0.00 0.00 94 1012.2
20260505011542 41 0.0 0.0 0.00 0.00 0.00 95 1012.2
20260505011035 41 0.0 0.0 0.00 0.00 0.00 95 1012.3
20260505010536 41 0.0 0.0 0.00 0.00 0.00 94 1012.3
20260505010103 41 0.0 0.0 0.00 0.00 0.00 94 1012.3
20260505005538 41 0.0 0.0 0.00 0.00 0.00 94 1012.3
20260505005035 41 0.0 0.0 0.00 0.00 0.00 94 1012.3
20260505004547 42 0.0 0.0 0.00 0.00 0.00 94 1012.4
20260505004034 42 0.0 0.0 0.00 0.00 0.00 94 1012.4
20260505003535 42 0.0 0.0 0.00 0.00 0.00 94 1012.2
20260505003048 42 0.0 0.0 0.00 0.00 0.00 94 1012.3
20260505002536 42 0.0 0.0 0.00 0.00 0.00 94 1012.3
20260505002035 42 0.0 0.0 0.00 0.00 0.00 94 1012.3
20260505001546 41 0.0 0.0 0.00 0.00 0.00 93 1012.2
20260505001034 42 0.0 0.0 0.00 0.00 0.00 94 1012.0
20260505000538 42 0.0 0.0 0.00 0.00 0.00 94 1012.2
20260505000047 42 0.0 0.0 0.00 0.00 0.00 94 1012.2
20260504235536 42 0.0 0.0 0.00 0.06 0.00 94 1012.2
20260504235036 42 0.0 0.0 0.00 0.06 0.00 93 1012.2
20260504234542 42 0.0 0.0 0.00 0.06 0.00 93 1012.1
20260504234034 42 0.0 0.0 0.00 0.06 0.00 93 1012.2
20260504233534 43 0.0 0.0 0.00 0.06 0.00 93 1012.3
20260504233047 43 0.0 0.0 0.00 0.06 0.00 93 1012.3
20260504232536 43 0.0 0.0 0.00 0.06 0.00 93 1012.5
20260504232036 43 0.0 0.0 0.00 0.06 0.00 93 1012.4
20260504231546 42 0.0 0.0 0.00 0.06 0.00 93 1012.3
20260504231034 42 0.0 0.0 0.00 0.06 0.00 92 1012.5
20260504230535 43 0.0 0.0 0.00 0.06 0.00 92 1012.5
20260504230048 43 0.0 0.0 0.00 0.06 0.00 93 1012.5
20260504225536 42 0.0 0.0 0.00 0.29 0.00 93 1012.5
20260504225034 42 0.0 0.0 0.00 0.29 0.00 91 1012.6
20260504224544 43 0.0 0.0 0.00 0.29 0.00 91 1012.5
20260504224035 44 0.0 0.0 0.00 0.29 0.00 91 1012.6
20260504223539 44 0.0 0.0 0.00 0.29 0.00 92 1012.4
20260504223050 44 0.0 0.0 0.00 0.29 0.00 91 1012.6
20260504222535 44 0.0 0.0 0.00 0.29 0.00 91 1012.7
20260504222034 44 0.0 0.0 0.00 0.29 0.00 91 1012.5
20260504221559 44 0.0 0.0 0.00 0.29 0.00 90 1012.5
20260504221034 44 0.0 0.0 0.00 0.29 0.00 90 1012.6
20260504220534 44 0.0 0.0 0.00 0.29 0.00 91 1012.7
20260504220049 44 0.0 0.0 0.00 0.29 0.00 90 1012.7
20260504215535 44 0.0 0.0 0.00 0.36 0.29 89 1012.7
20260504215036 45 0.0 0.0 0.00 0.36 0.29 89 1012.8
20260504214551 45 0.0 0.0 0.00 0.36 0.29 89 1012.9
20260504214035 45 0.0 0.0 0.00 0.36 0.29 89 1012.8
20260504213535 45 0.0 0.0 0.00 0.36 0.29 88 1012.9